[[{"header":{"parameterUnit":"m.s-1","parameterCategory":1,"la1":30.2991,"la2":30.254,"lo1":-89.0895,"lo2":-89.0444,"dy":0.0017,"dx":0.0017,"nx":28,"ny":28,"refTime":"2026-02-14T03:00:00:Z","depth":0,"parameterNumber":2,"parameterNumberName":"U-component_of_WINDS"},"data":[0,0,0,0,0,0,0,0,0,0,0,0,0,0,0,0,0,0,0,0,0,0,0,0,0,0,0,0,0,0,0,0,0,0,0,0,0,0,0,0,0,0,0,0,0,0,0,0,0,0,0,0,0,0,0,0,0,0,-1.222,-1.222,0,-1.2235,-1.2235,-1.2235,-1.2305,-1.2307,-1.2309,-1.231,-1.2322,-1.2321,-1.2319,0,0,0,0,0,0,0,0,0,0,0,0,0,-1.2247,-1.2246,-1.222,-1.222,-1.222,-1.2235,-1.2235,-1.2235,-1.2305,-1.2307,-1.2309,-1.2311,-1.2322,-1.2321,-1.2319,0,0,0,0,0,0,0,0,0,0,0,0,0,-1.2246,-1.2246,-1.222,-1.2257,-1.2261,-1.2235,-1.2235,-1.2235,-1.2305,-1.2307,-1.231,-1.2312,-1.2323,-1.2321,-1.2319,-1.2258,0,0,-1.2313,-1.2313,0,0,0,0,0,0,0,0,-1.2246,-1.2245,-1.2251,-1.2254,-1.2258,-1.2271,-1.2249,-1.2243,-1.2304,-1.2288,-1.231,-1.2313,-1.2303,-1.2303,-1.23,-1.2258,-1.2259,-1.2313,-1.2312,-1.2311,-1.2311,0,0,0,0,0,0,0,-1.2246,-1.2244,-1.2226,-1.2251,-1.2256,-1.2271,-1.2274,-1.2248,-1.2281,-1.2289,-1.2294,-1.2295,-1.2305,-1.2301,-1.2301,-1.2259,-1.2313,-1.2312,-1.231,-1.231,-1.2164,-1.2161,0,0,0,0,0,0,-1.2241,-1.2244,-1.2225,-1.2226,-1.2258,-1.2269,-1.2272,-1.2264,-1.2281,-1.2286,-1.2293,-1.2299,-1.2303,-1.2303,-1.2301,-1.2227,-1.2311,-1.231,-1.2308,-1.2167,-1.2163,-1.216,0,0,0,0,0,0,-1.2241,-1.2239,-1.2225,-1.2237,-1.2236,-1.2266,-1.2257,-1.2263,-1.226,-1.2285,-1.229,-1.2284,-1.2305,-1.2304,-1.2267,-1.2229,-1.2309,-1.2307,-1.217,-1.2166,-1.2162,-1.2081,0,0,0,0,0,0,-1.2242,-1.2239,-1.2217,-1.2236,-1.2235,-1.2192,-1.2255,-1.2262,-1.2257,-1.2264,-1.2277,-1.2282,-1.2307,-1.227,-1.2265,-1.2228,-1.2306,-1.2173,-1.2168,-1.2163,-1.2087,-1.2075,-1.2064,0,0,0,0,0,-1.2243,-1.2194,-1.2215,-1.2213,-1.2209,-1.219,-1.2189,-1.2221,-1.2254,-1.2231,-1.2246,-1.2281,-1.2234,-1.2265,-1.2261,-1.2222,-1.2176,-1.2169,-1.2163,-1.2092,-1.2077,-1.2064,0,0,0,0,0,0,-1.2169,-1.2197,-1.2221,-1.2177,-1.2181,-1.2202,-1.2174,-1.2204,-1.2197,-1.2204,-1.2242,-1.2244,-1.2201,-1.2209,-1.2243,-1.2162,-1.2211,-1.2203,-1.2158,-1.2144,-1.2133,-1.213,-1.2304,0,0,0,0,0,-1.2148,-1.2131,-1.2156,-1.2115,-1.2115,-1.2144,-1.2137,-1.2161,-1.2165,-1.2167,-1.218,-1.2181,-1.2167,-1.2156,-1.2145,-1.209,-1.2091,-1.2061,-1.2049,-1.2039,-1.2031,-1.1999,-1.1984,-1.214,-1.214,-1.214,0,0,-1.2103,-1.2116,-1.2104,-1.21,-1.2106,-1.2085,-1.2145,-1.2122,-1.2106,-1.2163,-1.2129,-1.2138,-1.2142,-1.2095,-1.2075,-1.21,-1.1989,-1.2031,-1.2023,-1.2021,-1.1991,-1.1976,-1.1963,-1.2136,-1.2136,-1.2137,0,0,-1.2011,-1.2021,-1.1986,-1.199,-1.1998,-1.2017,-1.2008,-1.2024,-1.2033,-1.1999,-1.204,-1.2022,-1.1997,-1.1997,-1.1994,-1.19,-1.193,-1.1895,-1.1833,-1.1801,-1.1789,-1.1778,-1.174,-1.1727,-1.1888,-1.1888,-1.1888,0,-1.1954,-1.1927,-1.1964,-1.1937,-1.1933,-1.1984,-1.1947,-1.1949,-1.1952,-1.1946,-1.1975,-1.1943,-1.195,-1.1901,-1.1878,-1.1875,-1.1864,-1.1893,-1.1788,-1.1777,-1.1768,-1.1732,-1.1718,-1.1883,-1.1884,-1.1884,-1.1885,0,-1.1855,-1.1835,-1.1806,-1.1807,-1.18,-1.1768,-1.1798,-1.1786,-1.181,-1.1825,-1.1789,-1.1799,-1.1788,-1.1779,-1.1803,-1.1733,-1.1747,-1.1781,-1.1831,-1.1747,-1.1714,-1.1702,-1.1877,-1.1878,-1.188,-1.1881,0,0,-1.1716,-1.1737,-1.1725,-1.1725,-1.1737,-1.1721,-1.1691,-1.1681,-1.1668,-1.1669,-1.1641,-1.1618,-1.1649,-1.1645,-1.1669,-1.1641,-1.1561,-1.1678,-1.1678,-1.1652,-1.148,-1.1451,-1.1435,-1.1582,-1.158,-1.1578,-1.1478,0,-1.1625,-1.1575,-1.1606,-1.155,-1.1531,-1.1578,-1.1551,-1.1554,-1.1567,-1.1551,-1.1565,-1.1547,-1.1591,-1.1588,-1.1563,-1.1576,-1.1526,-1.1584,-1.1554,-1.1552,-1.1548,-1.1419,-1.139,-1.1295,-1.1466,-1.1464,-1.1462,0,-1.1512,-1.1507,-1.1449,-1.1462,-1.1455,-1.143,-1.1422,-1.1407,-1.141,-1.1421,-1.1416,-1.1446,-1.1414,-1.1465,-1.1419,-1.1458,-1.1447,-1.1452,-1.1449,-1.1444,-1.15,-1.1407,-1.1266,-1.125,-1.1443,-1.1445,-1.1446,0,-1.1412,-1.1391,-1.1352,-1.1351,-1.1366,-1.1347,-1.1352,-1.1358,-1.1349,-1.1341,-1.1335,-1.1324,-1.1317,-1.1307,-1.1331,-1.1367,-1.1281,-1.1335,-1.1286,-1.1285,-1.1263,-1.1264,-1.1114,-1.1263,-1.1263,-1.1263,-1.1264,0,-1.1305,-1.1267,-1.1307,-1.1283,-1.1241,-1.1276,-1.1232,-1.1242,-1.1246,-1.1223,-1.1265,-1.1241,-1.1278,-1.1257,-1.1277,-1.1233,-1.1231,-1.1237,-1.1241,-1.1231,-1.1229,-1.1222,-1.1228,-1.126,-1.126,-1.1261,-1.1262,0,-1.1185,-1.1211,-1.1171,-1.1189,-1.1192,-1.1159,-1.1173,-1.115,-1.1166,-1.1136,-1.113,-1.1155,-1.1133,-1.1157,-1.1137,-1.115,-1.109,-1.1107,-1.1089,-1.1092,-1.1041,-1.1044,-1.0878,-1.0857,-1.1023,-1.1021,-1.102,0,-1.1113,-1.1085,-1.1098,-1.1086,-1.1089,-1.1069,-1.106,-1.1094,-1.1082,-1.1082,-1.1058,-1.1039,-1.1026,-1.0988,-1.1002,-1.0986,-1.1,-1.0943,-1.0998,-1.0987,-1.0994,-1.0994,-1.0989,-1.0931,-1.0929,-1.0927,-1.0926,0,-1.0982,-1.0996,-1.0983,-1.0972,-1.096,-1.0954,-1.095,-1.0937,-1.0971,-1.0956,-1.0934,-1.0924,-1.0903,-1.0882,-1.087,-1.0873,-1.0903,-1.0909,-1.0896,-1.0883,-1.0872,-1.0873,-1.1055,-1.0912,-1.0914,-1.0915,-1.0915,-1.0916,-1.0882,-1.0857,-1.0862,-1.0845,-1.0845,-1.084,-1.0818,-1.0832,-1.0814,-1.08,-1.0821,-1.0792,-1.0793,-1.078,-1.0778,-1.0755,-1.0779,-1.0761,-1.0756,-1.075,-1.074,-1.0879,-1.0753,-1.0754,-1.0754,-1.0754,-1.0755,0,-1.075,-1.0755,-1.0739,-1.0732,-1.0717,-1.075,-1.0746,-1.0731,-1.0705,-1.0704,-1.069,-1.0663,-1.0643,-1.0655,-1.0637,-1.0615,-1.0628,-1.0609,-1.0609,-1.0608,-1.0722,-1.0733,-1.0598,-1.0598,-1.0598,-1.0598,-1.0598,-1.0598,-1.0679,-1.0638,-1.0652,-1.061,-1.0616,-1.0589,-1.0584,-1.0578,-1.0577,-1.0545,-1.0528,-1.0537,-1.054,-1.0522,-1.0504,-1.0508,-1.0497,-1.0472,-1.048,-1.0586,-1.0601,-1.0615,-1.0626,-1.047,-1.047,-1.0368,-1.0367,-1.0366]},{"header":{"parameterUnit":"m.s-1","parameterCategory":1,"la1":30.2991,"la2":30.254,"lo1":-89.0895,"lo2":-89.0444,"dy":0.0017,"dx":0.0017,"nx":28,"ny":28,"refTime":"2026-02-14T03:00:00:Z","depth":0,"parameterNumber":3,"parameterNumberName":"V-component_of_WINDS"},"data":[0,0,0,0,0,0,0,0,0,0,0,0,0,0,0,0,0,0,0,0,0,0,0,0,0,0,0,0,0,0,0,0,0,0,0,0,0,0,0,0,0,0,0,0,0,0,0,0,0,0,0,0,0,0,0,0,0,0,5.9617,5.9619,0,5.9826,5.9829,5.9831,5.9847,5.9845,5.9842,5.984,6.0061,6.0068,6.0076,0,0,0,0,0,0,0,0,0,0,0,0,0,5.9241,5.9248,5.9617,5.962,5.9622,5.9826,5.9829,5.9832,5.9847,5.9845,5.9842,5.9839,6.0058,6.0067,6.0077,0,0,0,0,0,0,0,0,0,0,0,0,0,5.9423,5.925,5.9617,5.9655,5.966,5.9825,5.9829,5.9832,5.9848,5.9844,5.9841,5.9838,6.0055,6.0067,6.0078,6.0222,0,0,6.0115,6.012,0,0,0,0,0,0,0,0,5.9412,5.9436,5.9646,5.9652,5.9659,5.9807,5.9777,5.9963,5.9849,5.9777,5.984,5.9836,5.9979,5.9997,6.0044,6.0232,6.0242,6.0116,6.0124,6.0129,6.0132,0,0,0,0,0,0,0,5.94,5.9428,5.97,5.9649,5.9657,5.9664,5.9686,5.9812,5.9895,5.9783,5.9784,5.9809,5.9982,6.0033,6.005,6.0245,6.0116,6.0127,6.0134,6.0139,6.0567,6.0571,0,0,0,0,0,0,5.9379,5.9417,5.9693,5.9706,5.9524,5.9674,5.9698,5.9763,5.9894,5.991,5.9811,5.9809,6.0014,6.0036,6.0058,6.0238,6.0129,6.014,6.0147,6.0563,6.0568,6.0573,0,0,0,0,0,0,5.9371,5.9403,5.9685,5.9562,5.9599,5.9684,5.9756,5.9769,5.9819,5.9915,5.9931,5.9847,6.0012,6.0041,6.0182,6.0246,6.0145,6.0156,6.0558,6.0565,6.057,6.0598,0,0,0,0,0,0,5.936,5.94,5.9453,5.9563,5.9605,5.9803,5.976,5.9775,5.9839,5.9838,5.9953,5.9969,6.0012,6.0164,6.0194,6.0261,6.0166,6.0553,6.0561,6.0569,6.0592,6.0604,6.0615,0,0,0,0,0,5.9346,5.9453,5.9456,5.9489,5.9673,5.9806,5.9831,5.9876,5.9844,5.99,5.9963,5.9965,6.0233,6.0178,6.0212,6.0284,6.0549,6.0559,6.0568,6.0587,6.0602,6.0615,0,0,0,0,0,0,5.9349,5.9468,5.9472,5.9617,5.9701,5.9809,5.988,5.989,5.9986,5.9981,6.0035,6.0061,6.0201,6.0256,6.0192,6.0432,6.0389,6.0405,6.0391,6.0407,6.0418,6.0403,6.0176,0,0,0,0,0,5.9367,5.9463,5.9562,5.9681,5.9722,5.9794,5.9854,5.9882,5.9972,6.0008,6.0081,6.0171,6.0276,6.0344,6.0445,6.0599,6.0628,6.0666,6.0677,6.0687,6.0701,6.0792,6.0812,6.0604,6.0603,6.0603,0,0,5.9404,5.948,5.9538,5.9683,5.9752,5.9854,5.9824,5.9932,6.001,6.0025,6.0164,6.022,6.0325,6.0474,6.0544,6.0524,6.0765,6.0699,6.0705,6.0715,6.0804,6.0823,6.0841,6.061,6.0609,6.0608,0,0,5.9524,5.959,5.9698,5.9768,5.9872,5.9919,5.9945,6.0053,6.0091,6.023,6.0245,6.0339,6.0518,6.0593,6.0654,6.0807,6.0816,6.0839,6.0901,6.0989,6.1006,6.102,6.1079,6.1099,6.0853,6.0853,6.0853,0,5.9558,5.971,5.9753,5.9862,5.9927,5.9945,6.0058,6.0124,6.0257,6.0303,6.0279,6.0507,6.0577,6.0747,6.0785,6.0833,6.0868,6.0827,6.0999,6.1015,6.1029,6.1086,6.1108,6.0855,6.0855,6.0855,6.0855,0,5.9749,5.9854,5.9929,6.0056,6.013,6.024,6.0303,6.0374,6.0395,6.0447,6.0591,6.0677,6.0799,6.0841,6.0863,6.1016,6.1001,6.0987,6.0945,6.1051,6.1105,6.1127,6.0859,6.0858,6.0857,6.0857,0,0,5.9876,6.0027,6.0055,6.0115,6.0232,6.0317,6.0429,6.0547,6.0608,6.07,6.0799,6.0951,6.0941,6.1011,6.1042,6.1118,6.124,6.1097,6.11,6.1124,6.1419,6.1431,6.1455,6.1245,6.1249,6.1253,6.1412,0,6.0013,6.0212,6.0256,6.0429,6.053,6.055,6.0649,6.0734,6.0786,6.0881,6.0939,6.1048,6.1023,6.1067,6.1143,6.1209,6.1301,6.1198,6.1342,6.1347,6.1318,6.1483,6.1495,6.164,6.1433,6.1436,6.1439,0,6.0198,6.0294,6.0477,6.0585,6.0629,6.0717,6.0831,6.0921,6.1019,6.1052,6.1132,6.1156,6.1279,6.1229,6.1401,6.133,6.1392,6.1434,6.1441,6.1459,6.1401,6.1508,6.1687,6.171,6.1472,6.147,6.1467,0,6.0278,6.0453,6.0586,6.0636,6.0765,6.0827,6.0884,6.0979,6.1049,6.1149,6.1195,6.1309,6.1372,6.1461,6.1517,6.1475,6.1687,6.164,6.1722,6.1721,6.1767,6.1764,6.1962,6.1801,6.1801,6.1801,6.18,0,6.0428,6.054,6.0624,6.0707,6.0835,6.0886,6.1012,6.1069,6.1154,6.1251,6.1275,6.1366,6.1433,6.1535,6.1579,6.1718,6.1746,6.1779,6.179,6.1779,6.1775,6.1822,6.1815,6.1807,6.1805,6.1804,6.1803,0,6.054,6.06,6.0747,6.0857,6.0888,6.0978,6.1074,6.1157,6.1209,6.1332,6.1364,6.1448,6.1569,6.1633,6.1784,6.1815,6.1972,6.1976,6.1938,6.1944,6.2023,6.2016,6.226,6.2297,6.2109,6.211,6.2112,0,6.0632,6.0719,6.0839,6.0905,6.0963,6.1068,6.1139,6.1194,6.1268,6.1389,6.1459,6.1581,6.1682,6.1875,6.1952,6.2069,6.2078,6.2156,6.2096,6.2083,6.2085,6.208,6.2091,6.2167,6.2169,6.217,6.2172,0,6.0793,6.0819,6.0919,6.1032,6.1115,6.1207,6.1297,6.1351,6.1421,6.1504,6.1627,6.1705,6.1861,6.1984,6.2107,6.217,6.2185,6.2189,6.2215,6.2206,6.2183,6.2201,6.1971,6.2184,6.2183,6.2182,6.2181,6.2181,6.0901,6.0981,6.1078,6.1191,6.1264,6.1349,6.1434,6.1498,6.1601,6.1731,6.1757,6.1889,6.1991,6.2158,6.2225,6.2331,6.2316,6.2352,6.2362,6.2371,6.2377,6.2163,6.2354,6.2353,6.2353,6.2353,6.2353,0,6.1066,6.113,6.1232,6.1359,6.1448,6.1452,6.1553,6.1629,6.1744,6.1836,6.1935,6.208,6.22,6.2287,6.241,6.2479,6.249,6.251,6.2507,6.2523,6.2381,6.2348,6.25,6.25,6.25,6.25,6.25,6.25,6.1162,6.1299,6.1337,6.1513,6.1577,6.1705,6.1764,6.1844,6.1918,6.2078,6.2177,6.2232,6.2324,6.2455,6.2567,6.259,6.2636,6.2657,6.2681,6.2547,6.2532,6.2517,6.2487,6.2665,6.2666,6.2815,6.2816,6.2817]}]]